This demonstration page uses our WeatherBlox Daily Observations layout. Learn more.

Left ArrowRight Arrow

53.62937, 11.41316

Hourly Observations for December 9, 2021

Temp ( °F °C ) Dew Point ( °F °C ) Humidity (%) Winds ( mph kmh ) Pressure ( in mb ) Visibility ( mi km ) Precip ( " mm )
12:20 am 00:20 Cloudy 34 1 30 -1 87 87 VRB 5 7 29.65 1004 6 9 N/A
12:50 am 00:50 Cloudy 34 1 30 -1 87 87 SSE 7 11 29.65 1004 6 9 N/A
1:20 am 01:20 Cloudy 34 1 30 -1 87 87 VRB 3 6 29.65 1004 6 9 N/A
1:50 am 01:50 Mostly Cloudy 34 1 30 -1 87 87 SE 7 11 29.65 1004 5 8 N/A
2:20 am 02:20 Mostly Cloudy 34 1 30 -1 87 87 VRB 8 13 29.65 1004 5 8 N/A
2:50 am 02:50 Mostly Cloudy 34 1 30 -1 87 87 ESE 7 11 29.65 1004 5 8 N/A
3:20 am 03:20 Cloudy 32 0 28 -2 87 87 SE 7 11 29.65 1004 5 8 N/A
3:50 am 03:50 Mostly Cloudy 32 0 30 -1 93 93 SE 7 11 29.65 1004 5 8 N/A
4:20 am 04:20 Cloudy 32 0 30 -1 93 93 SE 8 13 29.65 1004 6 9 N/A
4:50 am 04:50 Cloudy 32 0 30 -1 93 93 SE 6 9 29.65 1004 5 8 N/A
5:20 am 05:20 Cloudy 32 0 30 -1 93 93 SE 7 11 29.68 1005 5 8 N/A
5:50 am 05:50 Mostly Cloudy 32 0 30 -1 93 93 ESE 5 7 29.65 1004 4 7 N/A
6:20 am 06:20 Mostly Cloudy with Light Snow 32 0 30 -1 93 93 ESE 5 7 29.68 1005 4 6 N/A
6:50 am 06:50 Mostly Cloudy with Light Snow 32 0 30 -1 93 93 ESE 6 9 29.68 1005 2 4 N/A
7:20 am 07:20 Mostly Cloudy with Light Snow 32 0 30 -1 93 93 ESE 6 9 29.68 1005 2 4 N/A
7:50 am 07:50 Mostly Cloudy with Light Snow 32 0 30 -1 93 93 SE 5 7 29.68 1005 3 5 N/A
8:20 am 08:20 Mostly Cloudy with Light Snow 32 0 30 -1 93 93 ESE 6 9 29.68 1005 3 5 N/A
8:50 am 08:50 Mostly Cloudy with Light Snow 32 0 30 -1 93 93 ESE 6 9 29.68 1005 3 5 N/A
9:20 am 09:20 Mostly Cloudy with Light Snow 32 0 30 -1 93 93 SE 7 11 29.68 1005 3 5 N/A
9:50 am 09:50 Mostly Cloudy with Light Snow 32 0 30 -1 93 93 SE 3 6 29.68 1005 3 5 N/A
10:20 am 10:20 Mostly Cloudy with Light Snow 32 0 30 -1 93 93 SE 5 7 29.68 1005 3 4 N/A
10:50 am 10:50 Mostly Cloudy with Light Snow 32 0 30 -1 93 93 SE 3 6 29.68 1005 2 4 N/A
11:20 am 11:20 Mostly Cloudy with Mist and Fog 32 0 30 -1 93 93 SE 5 7 29.68 1005 3 5 N/A
11:50 am 11:50 Mostly Cloudy with Light Snow 32 0 28 -2 87 87 SE 6 9 29.68 1005 3 5 N/A
12:20 pm 12:20 Mostly Cloudy with Light Snow 32 0 30 -1 93 93 SE 5 7 29.68 1005 2 3 N/A
12:50 pm 12:50 Mostly Cloudy with Light Snow 32 0 30 -1 93 93 SSE 5 7 29.68 1005 2 3 N/A
1:20 pm 13:20 Mostly Cloudy with Light Snow 32 0 30 -1 93 93 SE 5 7 29.65 1004 2 3 N/A
1:50 pm 13:50 Mostly Cloudy with Light Snow 32 0 30 -1 93 93 SSE 5 7 29.65 1004 3 4 N/A
2:20 pm 14:20 Mostly Cloudy with Mist and Fog 32 0 30 -1 93 93 SSE 3 6 29.65 1004 3 5 N/A
2:50 pm 14:50 Mostly Cloudy with Mist and Fog 32 0 30 -1 93 93 SSE 5 7 29.65 1004 3 5 N/A
3:20 pm 15:20 Mostly Cloudy with Mist and Fog 32 0 30 -1 93 93 SE 7 11 29.68 1005 2 4 N/A
3:50 pm 15:50 Mostly Cloudy with Mist and Fog 32 0 30 -1 93 93 SE 6 9 29.68 1005 2 4 N/A
4:20 pm 16:20 Mostly Cloudy with Mist and Fog 32 0 30 -1 93 93 SE 3 6 29.65 1004 2 4 N/A
4:50 pm 16:50 Mostly Cloudy with Mist and Fog 32 0 30 -1 93 93 SE 7 11 29.65 1004 3 5 N/A
5:20 pm 17:20 Mostly Cloudy with Mist and Fog 32 0 30 -1 93 93 SSE 7 11 29.68 1005 3 5 N/A
5:50 pm 17:50 Mostly Cloudy with Mist and Fog 32 0 30 -1 93 93 SSE 6 9 29.65 1004 3 5 N/A
6:20 pm 18:20 Mostly Cloudy with Mist and Fog 32 0 30 -1 93 93 S 5 7 29.65 1004 3 5 N/A
6:50 pm 18:50 Partly Cloudy with Mist and Fog 32 0 30 -1 93 93 SSE 5 7 29.65 1004 3 5 N/A
7:20 pm 19:20 Mostly Cloudy with Mist and Fog 32 0 30 -1 93 93 S 3 6 29.65 1004 3 5 N/A
7:50 pm 19:50 Mostly Cloudy with Mist and Fog 32 0 30 -1 93 93 S 3 6 29.65 1004 3 5 N/A
8:20 pm 20:20 Mostly Cloudy with Mist and Fog 32 0 30 -1 93 93 SSE 3 6 29.65 1004 3 5 N/A
8:50 pm 20:50 Mostly Cloudy with Mist and Fog 32 0 32 0 100 100 SSE 7 11 29.65 1004 3 5 N/A
9:20 pm 21:20 Mostly Cloudy 32 0 32 0 100 100 SE 5 7 29.65 1004 3 5 N/A
9:50 pm 21:50 Mostly Cloudy 32 0 32 0 100 100 VRB 3 6 29.62 1003 3 5 N/A
10:20 pm 22:20 Mostly Cloudy 32 0 32 0 100 100 S 5 7 29.62 1003 3 4 N/A
10:50 pm 22:50 Mostly Cloudy 32 0 32 0 100 100 SSE 5 7 29.62 1003 3 4 N/A
11:20 pm 23:20 Cloudy 32 0 32 0 100 100 SSE 5 7 29.62 1003 3 4 N/A
11:50 pm 23:50 Cloudy 34 1 32 0 93 93 SSE 7 11 29.62 1003 3 4 N/A

Powered by AerisWeather